This demonstration page uses our WeatherBlox Daily Observations layout. Learn more.

Hourly Observations for June 22, 2020

Temp ( °F °C ) Dew Point ( °F °C ) Humidity (%) Winds ( mph kmh ) Pressure ( in mb ) Visibility ( mi km ) Precip ( " mm )
12:15 am 00:15 Clear 72 22 68 20 88 88 S 3 6 29.99 1016 10 16.0934 0 0
12:35 am 00:35 Clear 72 22 68 20 88 88 S 5 7 29.99 1016 10 16.0934 0 0
12:55 am 00:55 Clear 72 22 68 20 88 88 S 3 6 29.99 1016 10 16.0934 0 0
1:15 am 01:15 Clear 70 21 68 20 94 94 Calm 29.99 1016 10 16.0934 0 0
1:35 am 01:35 Clear 72 22 68 20 88 88 S 3 6 29.99 1016 10 16.0934 0 0
1:55 am 01:55 Clear 70 21 68 20 94 94 S 3 6 29.99 1016 10 16.0934 0 0
2:15 am 02:15 Clear 70 21 68 20 94 94 S 3 6 29.98 1015 10 16.0934 0 0
2:35 am 02:35 Clear 70 21 68 20 94 94 S 5 7 29.99 1016 10 16.0934 0 0
2:55 am 02:55 Clear 68 20 66 19 94 94 S 5 7 29.99 1016 10 16.0934 0 0
3:15 am 03:15 Clear 68 20 66 19 94 94 S 3 6 29.99 1016 10 16.0934 0 0
3:35 am 03:35 Clear 68 20 66 19 94 94 S 3 6 29.99 1016 10 16.0934 0 0
3:55 am 03:55 Clear 68 20 66 19 94 94 S 3 6 29.99 1016 10 16.0934 0 0
4:15 am 04:15 Clear 66 19 66 19 100 100 SSW 3 6 29.99 1016 10 16.0934 0 0
4:35 am 04:35 Clear 64 18 64 18 100 100 Calm 29.99 1016 10 16.0934 0 0
4:55 am 04:55 Clear 64 18 64 18 100 100 Calm 29.99 1016 10 16.0934 0 0
5:15 am 05:15 Clear 66 19 66 19 100 100 Calm 29.99 1016 10 16.0934 0 0
5:35 am 05:35 Clear 64 18 64 18 100 100 Calm 29.99 1016 10 16.0934 0 0
5:55 am 05:55 Sunny 63 17 63 17 100 100 Calm 30 1016 10 16.0934 0 0
6:15 am 06:15 Sunny 63 17 63 17 100 100 Calm 30 1016 10 16.0934 0 0
6:35 am 06:35 Mostly Cloudy 64 18 64 18 100 100 Calm 29.99 1016 10 16.0934 0 0
6:55 am 06:55 Mostly Cloudy 64 18 64 18 100 100 Calm 29.99 1016 10 16.0934 0 0
7:15 am 07:15 Cloudy 64 18 64 18 100 100 Calm 29.99 1016 10 16.0934 0 0
7:35 am 07:35 Cloudy 64 18 64 18 100 100 S 3 6 29.99 1016 10 16.0934 0 0
7:55 am 07:55 Cloudy 68 20 66 19 94 94 S 5 7 29.99 1016 10 16.0934 0 0
8:15 am 08:15 Mostly Cloudy 68 20 68 20 100 100 W 5 7 30 1016 10 16.0934 0 0
8:35 am 08:35 Partly Cloudy 70 21 68 20 94 94 WSW 6 9 30 1016 10 16.0934 0 0
8:55 am 08:55 Sunny 72 22 68 20 88 88 Calm 30 1016 10 16.0934 0 0
9:15 am 09:15 Sunny 72 22 68 20 88 88 S 5 7 29.99 1016 10 16.0934 0 0
9:35 am 09:35 Sunny 73 23 68 20 83 83 SSW 6 9 29.99 1015 10 16.0934 0 0
9:55 am 09:55 Sunny 75 24 70 21 83 83 SE 3 6 29.98 1015 10 16.0934 0 0
10:15 am 10:15 Sunny 77 25 70 21 79 79 Calm 29.96 1015 10 16.0934 0 0
10:35 am 10:35 Sunny 79 26 70 21 74 74 Calm 29.96 1015 10 16.0934 0 0
10:55 am 10:55 Sunny 81 27 70 21 70 70 SSE 3 6 29.98 1015 10 16.0934 0 0
11:15 am 11:15 Sunny 81 27 70 21 70 70 S 5 7 29.97 1015 10 16.0934 0 0
11:35 am 11:35 Sunny 82 28 70 21 66 66 SSE 7 11 29.96 1015 10 16.0934 0 0
11:55 am 11:55 Sunny 84 29 72 22 66 66 S 5 7 29.96 1015 10 16.0934 0 0
12:15 pm 12:15 Partly Cloudy 86 30 72 22 62 62 SW 7 11 29.96 1014 10 16.0934 0 0
12:35 pm 12:35 Partly Cloudy 86 30 72 22 62 62 S 7 11 29.95 1014 10 16.0934 0 0
12:55 pm 12:55 Partly Cloudy 88 31 72 22 59 59 S 8 13 29.94 1014 10 16.0934 0 0
1:15 pm 13:15 Mostly Cloudy 88 31 72 22 59 59 SSW 8 13 29.93 1013 10 16.0934 0 0
1:35 pm 13:35 Partly Cloudy 88 31 72 22 59 59 S 9 15 29.92 1013 10 16.0934 0 0
1:55 pm 13:55 Partly Cloudy 90 32 72 22 55 55 S 9 15 29.91 1013 10 16.0934 0 0
2:15 pm 14:15 Partly Cloudy 90 32 72 22 55 55 S 13 20 29.9 1012 10 16.0934 0 0
2:35 pm 14:35 Partly Cloudy 90 32 72 22 55 55 S 10 17 29.9 1012 10 16.0934 0 0
2:55 pm 14:55 Mostly Cloudy with Nearby Thunderstorms 90 32 72 22 55 55 SSE 9 15 29.89 1012 10 16.0934 0 0
3:15 pm 15:15 Mostly Cloudy 88 31 72 22 59 59 SSE 7 11 29.88 1012 10 16.0934 0 0
3:35 pm 15:35 Cloudy with Thunderstorms 81 27 73 23 79 79 S 12 19 29.87 1012 3 4.82802 0 0
3:55 pm 15:55 Mostly Cloudy with Thunderstorms 81 27 73 23 79 79 S 3 6 29.86 1011 10 16.0934 0 0
4:15 pm 16:15 Partly Cloudy with Nearby Thunderstorms 81 27 73 23 79 79 SE 8 13 29.86 1011 10 16.0934 0 0
4:35 pm 16:35 Mostly Cloudy 81 27 70 21 70 70 SE 5 7 29.88 1012 10 16.0934 0 0
5:15 pm 17:15 Partly Cloudy with Nearby Thunderstorms 81 27 70 21 70 70 ESE 3 6 29.85 1011 10 16.0934 0 0
5:35 pm 17:35 Sunny with Nearby Thunderstorms 82 28 72 22 70 70 Calm 29.83 1010 10 16.0934 0 0
5:55 pm 17:55 Sunny with Thunderstorms 81 27 72 22 74 74 SSE 10 17 29.86 1011 10 16.0934 0 0
6:15 pm 18:15 Mostly Cloudy with Nearby Thunderstorms 77 25 72 22 83 83 SSW 15 24 29.9 1013 2.5 4.02335 0 0
6:35 pm 18:35 Cloudy with Thunderstorms 70 21 70 21 100 100 WNW 7 11 29.92 1013 7 11.26538 0 0
6:55 pm 18:55 Cloudy with Thunderstorms 68 20 68 20 100 100 N 3 6 29.93 1014 7 11.26538 0 0
7:15 pm 19:15 Mostly Cloudy with Thunderstorms 68 20 68 20 100 100 Calm 29.92 1013 3 4.82802 0 0
7:35 pm 19:35 Mostly Cloudy 68 20 68 20 100 100 S 5 7 29.92 1013 10 16.0934 0 0
7:55 pm 19:55 Mostly Cloudy with Nearby Thunderstorms 68 20 68 20 100 100 SSE 5 7 29.94 1014 10 16.0934 0 0
8:15 pm 20:15 Cloudy 66 19 66 19 100 100 Calm 29.94 1014 10 16.0934 0 0
8:35 pm 20:35 Cloudy with Nearby Thunderstorms 68 20 68 20 100 100 Calm 29.94 1014 7 11.26538 0 0
8:55 pm 20:55 Cloudy 68 20 68 20 100 100 S 5 7 29.94 1014 10 16.0934 0 0
9:15 pm 21:15 Mostly Cloudy 68 20 68 20 100 100 S 6 9 29.94 1014 10 16.0934 0 0
9:35 pm 21:35 Partly Cloudy 66 19 66 19 100 100 S 6 9 29.94 1014 10 16.0934 0 0
9:55 pm 21:55 Clear 66 19 66 19 100 100 Calm 29.93 1014 10 16.0934 0 0
10:15 pm 22:15 Clear 64 18 64 18 100 100 SSW 3 6 29.92 1013 10 16.0934 0 0
10:35 pm 22:35 Partly Cloudy 64 18 64 18 100 100 SW 3 6 29.92 1013 10 16.0934 0 0
10:55 pm 22:55 Clear 64 18 64 18 100 100 SSW 3 6 29.91 1013 10 16.0934 0 0
11:15 pm 23:15 Clear 63 17 63 17 100 100 SW 5 7 29.91 1013 10 16.0934 0 0
11:35 pm 23:35 Clear 63 17 63 17 100 100 Calm 29.91 1013 10 16.0934 0 0
11:55 pm 23:55 Clear 63 17 63 17 100 100 Calm 29.9 1012 10 16.0934 0 0

Powered by AerisWeather